2023/09/16 00:00:00, 0.2,23.3
2023/09/16 00:10:00, 0.5,23.0
2023/09/16 00:20:00, 0.5,23.1
2023/09/16 00:30:00, 2.9,23.1
2023/09/16 00:40:00, 9.7,22.9
2023/09/16 00:50:00,10.9,23.0
2023/09/16 01:00:00, 8.8,22.9
2023/09/16 01:10:00, 0.1,22.7
2023/09/16 01:20:00, 0.2,22.9
2023/09/16 01:30:00, 0.2,22.8
2023/09/16 01:40:00, 0.2,22.9
2023/09/16 01:50:00,---,22.9
2023/09/16 02:00:00,10.4,23.0
2023/09/16 02:10:00, 9.2,22.9
2023/09/16 02:20:00, 8.9,22.8
2023/09/16 02:30:00, 8.9,22.9
2023/09/16 02:40:00, 8.9,22.8
2023/09/16 02:50:00, 9.0,22.7
2023/09/16 03:00:00, 9.0,22.8
2023/09/16 03:10:00, 9.5,22.6
2023/09/16 03:20:00, 8.9,22.6
2023/09/16 03:30:00, 6.6,22.4
2023/09/16 03:40:00, 0.9,22.5
2023/09/16 03:50:00, 0.6,22.6
2023/09/16 04:00:00, 0.5,22.4
2023/09/16 04:10:00, 4.2,22.3
2023/09/16 04:20:00,12.1,22.7
2023/09/16 04:30:00,10.2,22.3
2023/09/16 04:40:00, 7.9,22.3
2023/09/16 04:50:00, 8.3,22.2
2023/09/16 05:00:00, 8.8,22.1
2023/09/16 05:10:00, 9.2,22.3
2023/09/16 05:20:00, 9.7,22.2
2023/09/16 05:30:00,10.6,22.1
2023/09/16 05:40:00,11.6,21.9
2023/09/16 05:50:00,12.2,21.8
2023/09/16 06:00:00, 4.9,22.1
2023/09/16 06:10:00, 0.6,22.0
2023/09/16 06:20:00, 6.2,21.9
2023/09/16 06:30:00, 9.9,22.3
2023/09/16 06:40:00, 9.4,22.3
2023/09/16 06:50:00, 9.4,22.2
2023/09/16 07:00:00, 9.4,22.0
2023/09/16 07:10:00, 9.6,22.4
2023/09/16 07:20:00,10.0,23.6
2023/09/16 07:30:00,10.3,23.3
2023/09/16 07:40:00,11.7,23.7
2023/09/16 07:50:00, 4.4,24.0
2023/09/16 08:00:00, 3.7,24.1
2023/09/16 08:10:00, 6.4,24.4
2023/09/16 08:20:00,12.3,24.9
2023/09/16 08:30:00, 5.6,25.5
2023/09/16 08:40:00, 4.8,25.7
2023/09/16 08:50:00, 4.0,25.9
2023/09/16 09:00:00, 3.1,26.9
2023/09/16 09:10:00, 4.4,27.4
2023/09/16 09:20:00,---,27.6
2023/09/16 09:30:00, 2.2,27.7
2023/09/16 09:40:00, 2.2,28.2
2023/09/16 09:50:00, 1.9,28.8
2023/09/16 10:00:00, 1.8,29.4
2023/09/16 10:10:00, 1.6,30.1
2023/09/16 10:20:00, 1.7,30.2
2023/09/16 10:30:00, 1.6,31.8
2023/09/16 10:40:00, 1.7,31.2
2023/09/16 10:50:00, 2.0,30.1
2023/09/16 11:00:00, 2.0,30.8
2023/09/16 11:10:00, 2.0,31.1
2023/09/16 11:20:00, 4.9,30.6
2023/09/16 11:30:00, 3.6,30.7
2023/09/16 11:40:00, 3.3,30.9
2023/09/16 11:50:00, 5.0,31.2
2023/09/16 12:00:00, 3.9,30.3
2023/09/16 12:10:00, 2.3,30.2
2023/09/16 12:20:00, 2.1,29.0
2023/09/16 12:30:00, 2.1,28.9
2023/09/16 12:40:00, 2.1,28.8
2023/09/16 12:50:00, 2.1,28.7
2023/09/16 13:00:00, 2.0,29.0
2023/09/16 13:10:00, 2.1,29.3
2023/09/16 13:20:00, 2.0,30.0
2023/09/16 13:30:00, 1.9,31.5
2023/09/16 13:40:00, 2.0,32.2
2023/09/16 13:50:00, 1.9,31.4
2023/09/16 14:00:00, 2.1,31.2
2023/09/16 14:10:00, 2.1,31.2
2023/09/16 14:20:00, 2.0,30.8
2023/09/16 14:30:00, 2.1,31.4
2023/09/16 14:40:00, 2.1,31.5
2023/09/16 14:50:00, 2.1,31.6
2023/09/16 15:00:00, 2.1,30.7
2023/09/16 15:10:00, 2.2,30.6
2023/09/16 15:20:00, 2.3,29.5
2023/09/16 15:30:00, 6.6,28.9
2023/09/16 15:40:00,11.7,28.6
2023/09/16 15:50:00, 7.6,28.1
2023/09/16 16:00:00, 1.9,26.4
2023/09/16 16:10:00, 1.6,25.4
2023/09/16 16:20:00, 1.5,25.0
2023/09/16 16:30:00, 1.4,25.1
2023/09/16 16:40:00, 1.4,25.2
2023/09/16 16:50:00, 1.5,25.1
2023/09/16 17:00:00, 1.4,24.6
2023/09/16 17:10:00, 1.0,23.7
2023/09/16 17:20:00, 1.0,24.3
2023/09/16 17:30:00, 1.0,23.8
2023/09/16 17:40:00, 0.9,24.0
2023/09/16 17:50:00, 0.9,24.0
2023/09/16 18:00:00, 1.0,23.7
2023/09/16 18:10:00, 0.9,23.8
2023/09/16 18:20:00, 0.9,23.8
2023/09/16 18:30:00, 1.0,23.8
2023/09/16 18:40:00, 1.0,23.6
2023/09/16 18:50:00, 1.1,23.6
2023/09/16 19:00:00, 1.0,23.6
2023/09/16 19:10:00, 1.1,23.5
2023/09/16 19:20:00, 1.0,23.7
2023/09/16 19:30:00, 1.1,23.6
2023/09/16 19:40:00, 1.1,23.7
2023/09/16 19:50:00, 1.1,23.7
2023/09/16 20:00:00, 1.0,23.8
2023/09/16 20:10:00, 1.1,23.6
2023/09/16 20:20:00, 1.1,23.6
2023/09/16 20:30:00, 1.0,23.3
2023/09/16 20:40:00, 1.1,23.3
2023/09/16 20:50:00, 1.1,23.3
2023/09/16 21:00:00, 1.1,23.6
2023/09/16 21:10:00, 1.0,23.4
2023/09/16 21:20:00, 1.1,23.3
2023/09/16 21:30:00, 1.1,23.3
2023/09/16 21:40:00, 1.2,23.3
2023/09/16 21:50:00, 1.2,23.2
2023/09/16 22:00:00, 1.2,23.3
2023/09/16 22:10:00, 1.3,23.3
2023/09/16 22:20:00, 1.2,23.2
2023/09/16 22:30:00, 1.3,23.3
2023/09/16 22:40:00, 1.3,23.5
2023/09/16 22:50:00, 1.3,23.2
2023/09/16 23:00:00, 1.3,23.3
2023/09/16 23:10:00, 1.3,23.0
2023/09/16 23:20:00, 1.3,23.0
2023/09/16 23:30:00, 1.3,23.0
2023/09/16 23:40:00, 1.4,23.0
2023/09/16 23:50:00, 1.3,23.0
